TimeEDT,TemperatureF,Dew PointF,Humidity,Sea Level PressureIn,VisibilityMPH,Wind Direction,Wind SpeedMPH,Gust SpeedMPH,PrecipitationIn,Events,Conditions,WindDirDegrees,DateUTC
12:14 AM,64.8,62.8,93,29.67,7.0,Calm,Calm,-,N/A,Rain,Rain,0,2013-06-13 04:14:00
12:35 AM,64.4,62.8,94,29.65,7.0,Calm,Calm,-,N/A,Rain,Rain,0,2013-06-13 04:35:00
12:54 AM,64.0,63.0,96,29.66,10.0,West,3.5,-,N/A,Rain,Rain,280,2013-06-13 04:54:00
1:14 AM,64.2,63.5,98,29.60,10.0,NNE,5.8,-,N/A,Rain,Light Rain,20,2013-06-13 05:14:00
1:33 AM,64.8,63.9,97,29.65,10.0,WNW,4.6,-,N/A,Rain,Light Rain,300,2013-06-13 05:33:00
1:54 AM,64.6,63.7,97,29.69,10.0,WSW,8.1,-,N/A,Rain,Light Rain,250,2013-06-13 05:54:00
2:14 AM,64.4,63.5,97,29.65,10.0,Calm,Calm,-,N/A,Rain,Rain,0,2013-06-13 06:14:00
2:34 AM,64.0,63.5,98,29.63,10.0,Calm,Calm,-,N/A,Rain,Light Rain,0,2013-06-13 06:34:00
2:54 AM,64.4,63.7,98,29.63,10.0,NNE,3.5,-,N/A,,Mostly Cloudy,20,2013-06-13 06:54:00
3:14 AM,64.0,63.7,99,29.60,10.0,Calm,Calm,-,N/A,,Overcast,0,2013-06-13 07:14:00
3:34 AM,63.9,63.5,99,29.60,10.0,NNW,8.1,-,N/A,,Overcast,330,2013-06-13 07:34:00
3:54 AM,64.0,63.7,99,29.65,10.0,WNW,6.9,-,N/A,,Overcast,300,2013-06-13 07:54:00
4:14 AM,64.4,63.7,98,29.65,10.0,North,3.5,-,N/A,,Mostly Cloudy,350,2013-06-13 08:14:00
4:34 AM,64.4,63.5,97,29.66,10.0,North,5.8,-,N/A,,Overcast,350,2013-06-13 08:34:00
4:54 AM,64.8,64.0,98,29.68,10.0,WNW,8.1,-,N/A,,Overcast,290,2013-06-13 08:54:00
5:14 AM,64.4,63.7,98,29.69,10.0,NW,6.9,-,N/A,,Overcast,320,2013-06-13 09:14:00
5:34 AM,64.6,63.7,97,29.70,10.0,NW,6.9,-,N/A,,Overcast,310,2013-06-13 09:34:00
5:54 AM,64.6,63.9,98,29.70,10.0,WNW,6.9,-,N/A,,Overcast,300,2013-06-13 09:54:00
6:14 AM,64.6,63.9,98,29.72,7.0,NW,17.3,21.9,N/A,Rain,Rain,320,2013-06-13 10:14:00
6:34 AM,62.4,61.0,95,29.72,7.0,NNE,9.2,-,N/A,Rain,Light Rain,30,2013-06-13 10:34:00
6:54 AM,61.7,59.0,91,29.72,10.0,NE,6.9,-,N/A,,Overcast,40,2013-06-13 10:54:00
7:14 AM,61.7,58.5,89,29.73,10.0,North,5.8,-,N/A,,Overcast,360,2013-06-13 11:14:00
7:34 AM,61.2,58.3,90,29.75,10.0,North,5.8,-,N/A,,Overcast,350,2013-06-13 11:34:00
7:54 AM,60.8,58.1,91,29.77,10.0,NNW,4.6,-,N/A,,Overcast,340,2013-06-13 11:54:00
8:14 AM,61.0,57.7,89,29.78,10.0,North,4.6,-,N/A,,Overcast,350,2013-06-13 12:14:00
8:34 AM,61.5,58.3,89,29.79,10.0,North,5.8,-,N/A,,Overcast,350,2013-06-13 12:34:00
8:54 AM,62.8,58.6,86,29.80,10.0,North,9.2,-,N/A,,Mostly Cloudy,350,2013-06-13 12:54:00
9:14 AM,63.5,58.5,84,29.80,10.0,North,9.2,-,N/A,,Mostly Cloudy,350,2013-06-13 13:14:00
9:34 AM,65.3,59.2,81,29.81,10.0,North,9.2,-,N/A,,Scattered Clouds,350,2013-06-13 13:34:00
9:54 AM,66.6,59.0,77,29.82,10.0,NNW,9.2,-,N/A,,Clear,330,2013-06-13 13:54:00
10:14 AM,68.0,58.1,71,29.82,10.0,NNW,8.1,-,N/A,,Clear,340,2013-06-13 14:14:00
10:34 AM,68.5,57.7,68,29.82,10.0,North,8.1,17.3,N/A,,Clear,350,2013-06-13 14:34:00
10:54 AM,70.5,58.3,65,29.83,10.0,NNW,10.4,16.1,N/A,,Clear,330,2013-06-13 14:54:00
11:14 AM,71.6,59.0,64,29.83,10.0,NNW,10.4,-,N/A,,Clear,330,2013-06-13 15:14:00
11:33 AM,72.0,58.3,62,29.83,10.0,North,9.2,17.3,N/A,,Clear,350,2013-06-13 15:33:00
11:54 AM,73.4,57.6,58,29.84,10.0,North,12.7,20.7,N/A,,Scattered Clouds,360,2013-06-13 15:54:00
12:14 PM,73.8,57.4,56,29.84,10.0,NNW,12.7,21.9,N/A,,Scattered Clouds,330,2013-06-13 16:14:00
12:34 PM,74.5,56.8,54,29.85,10.0,NNW,8.1,18.4,N/A,,Scattered Clouds,330,2013-06-13 16:34:00
12:54 PM,74.3,55.4,52,29.85,10.0,North,10.4,17.3,N/A,,Scattered Clouds,360,2013-06-13 16:54:00
1:14 PM,74.7,55.8,52,29.85,10.0,NNW,11.5,21.9,N/A,,Scattered Clouds,340,2013-06-13 17:14:00
1:34 PM,75.2,55.9,51,29.85,10.0,North,12.7,16.1,N/A,,Clear,10,2013-06-13 17:34:00
1:54 PM,75.4,56.5,52,29.86,10.0,North,8.1,-,N/A,,Clear,360,2013-06-13 17:54:00
2:14 PM,75.6,56.3,51,29.86,10.0,North,13.8,18.4,N/A,,Clear,360,2013-06-13 18:14:00
2:34 PM,75.9,56.8,51,29.87,10.0,North,10.4,-,N/A,,Clear,360,2013-06-13 18:34:00
2:54 PM,75.7,55.8,50,29.87,10.0,NNW,17.3,20.7,N/A,,Scattered Clouds,330,2013-06-13 18:54:00
3:14 PM,76.1,56.3,50,29.87,10.0,NW,11.5,19.6,N/A,,Clear,310,2013-06-13 19:14:00
3:34 PM,75.2,59.9,59,29.88,10.0,NNW,13.8,24.2,N/A,,Mostly Cloudy,330,2013-06-13 19:34:00
3:54 PM,75.9,62.1,62,29.89,10.0,WNW,16.1,23.0,N/A,,Scattered Clouds,300,2013-06-13 19:54:00
4:14 PM,74.8,59.5,59,29.90,10.0,NW,12.7,23.0,N/A,,Clear,310,2013-06-13 20:14:00
4:34 PM,74.5,59.2,59,29.90,10.0,NW,13.8,26.5,N/A,,Clear,310,2013-06-13 20:34:00
4:54 PM,73.8,57.4,56,29.90,10.0,WNW,16.1,26.5,N/A,,Clear,300,2013-06-13 20:54:00
5:14 PM,72.7,56.8,57,29.91,10.0,WNW,17.3,24.2,N/A,,Clear,300,2013-06-13 21:14:00
5:34 PM,71.6,56.7,59,29.91,10.0,WNW,20.7,26.5,N/A,,Clear,290,2013-06-13 21:34:00
5:54 PM,70.3,56.3,61,29.91,10.0,WNW,13.8,25.3,N/A,,Clear,300,2013-06-13 21:54:00
6:14 PM,68.9,54.9,61,29.91,10.0,WNW,16.1,25.3,N/A,,Clear,300,2013-06-13 22:14:00
6:33 PM,68.7,55.4,62,29.91,10.0,WNW,12.7,21.9,N/A,,Clear,300,2013-06-13 22:33:00
6:54 PM,68.7,54.9,61,29.92,10.0,NW,16.1,20.7,N/A,,Clear,310,2013-06-13 22:54:00
7:14 PM,68.5,55.0,62,29.92,10.0,NW,15.0,19.6,N/A,,Clear,310,2013-06-13 23:14:00
7:34 PM,68.0,54.7,62,29.92,10.0,NW,13.8,19.6,N/A,,Clear,310,2013-06-13 23:34:00
7:54 PM,67.1,54.1,63,29.93,10.0,NW,9.2,-,N/A,,Clear,310,2013-06-13 23:54:00
8:14 PM,66.4,54.0,64,29.93,10.0,NW,8.1,16.1,N/A,,Clear,310,2013-06-14 00:14:00
8:34 PM,65.3,54.3,68,29.93,10.0,NW,9.2,17.3,N/A,,Clear,310,2013-06-14 00:34:00
8:54 PM,64.4,54.5,70,29.94,10.0,NW,10.4,-,N/A,,Clear,310,2013-06-14 00:54:00
9:14 PM,63.1,54.3,73,29.94,10.0,NW,6.9,-,N/A,,Clear,310,2013-06-14 01:14:00
9:34 PM,62.2,54.5,76,29.95,10.0,NW,5.8,-,N/A,,Clear,310,2013-06-14 01:34:00
9:54 PM,61.5,54.9,79,29.95,10.0,NW,6.9,-,N/A,,Clear,310,2013-06-14 01:54:00
10:14 PM,60.4,55.0,82,29.96,10.0,NW,8.1,-,N/A,,Clear,310,2013-06-14 02:14:00
10:34 PM,59.9,55.0,84,29.97,10.0,NW,5.8,-,N/A,,Clear,310,2013-06-14 02:34:00
10:54 PM,59.0,55.0,87,29.98,10.0,WNW,5.8,-,N/A,,Clear,300,2013-06-14 02:54:00
11:14 PM,58.6,55.4,89,29.98,10.0,NW,6.9,-,N/A,,Clear,320,2013-06-14 03:14:00
11:34 PM,58.5,55.4,90,29.98,10.0,NW,5.8,-,N/A,,Clear,310,2013-06-14 03:34:00
11:54 PM,58.3,55.6,91,29.98,10.0,NNW,3.5,-,N/A,,Clear,330,2013-06-14 03:54:00